Loisir ou Compétition : Rejoignez un Club de la Fédération

Résultats

3e Derby des Mouilles

LES GLIERES

FS Hommes

Jury de Compétition

Délégué Technique :
FORT THOMAS (MB)
D.T. Adjoint :
 
Dir. Epreuve :
ROGUET JEAN CLAUDE (MB)

Caractéristiques de la Piste

Piste :
PLATEAU DES GLIERES
Distance :
2.5 km
Point Haut :
 
Point Bas :
 
Montée Tot. :
 
Montée Max. :
 
Homologation :
2018-33-1

Pénalité Appliquée :
 
Coefficient :
 

Catégorie :
U13
Style :
L

01/04/18 - FMBM0182

CltDosClt/CatCodeAnNom PrénomComClubTempsEcartPoints
1651/U13FFS26869382005VALLEIX JORISMBSCNP ROCHOIS07:13.000:00.0
2692/U13FFS26715652005COLOMBAN ALEXISMBSCNP ROCHOIS07:27.500:14.5
3723/U13FFS26677442005BIZZOCCHI ESTEBANMBSC D'AGY07:28.400:15.4
4704/U13FFS26866952005PERRILLAT BOTTONET JUDICAMBSC GD BORNAN07:42.100:29.1
5675/U13FFS26866812005DELOCHE LINOMBSC GD BORNAN07:42.900:29.9
6686/U13FFS26769102005CLAVEL SIMONMBCS LA CLUSAZ07:46.300:33.3
7777/U13FFS26865392005LACROIX MATTHIASMBDRAGONS ANNY07:52.600:39.6
8748/U13FFS26867932005MARIE ADELINMBSC D'AGY07:52.900:39.9
9799/U13FFS26663242005FAVRE FELIX KILLIANMBSC GD BORNAN07:53.900:40.9
107110/U13FFS26869392005GRENARD MAXMBSCNP ROCHOIS07:54.100:41.1
117811/U13FFS26862602005BOSSUT AUGUSTINMBPRAZ LYS-SOM07:54.200:41.2
126612/U13FFS26866632005PERRILLAT BOITEUX ANTHONYMBSC GD BORNAN07:58.700:45.7
1310813/U13FFS26716712005DUPONT ILANNMJOLYMP MT DOR08:00.800:47.8
147614/U13FFS26737562005PEYRON ARTHURMBCS CHAMONIX08:01.200:48.2
157315/U13FFS26862422005VIGUIER QUENTINMBCS LA CLUSAZ08:04.300:51.3
169116/U13FFS26925522005PETROD BASTIENMBCNG08:04.600:51.6
178517/U13FFS26865422005PEYRET TILIENMBDRAGONS ANNY08:05.600:52.6
188318/U13FFS26867952005DELERCE THIBAULTMBSC D'AGY08:07.900:54.9
199019/U13FFS26865352005FAILLENET JORISMBDRAGONS ANNY08:09.800:56.8
208720/U13FFS26870352005CORNU MATHIEUMBCS CHAMONIX08:15.001:02.0
217521/U13FFS26866722005BROCHANT LUCASMBSC GD BORNAN08:16.501:03.5
228822/U13FFS26811712005LUZET HUGOMBCS LA CLUSAZ08:20.201:07.2
238423/U13FFS26865432005ROMERI NATHANMBDRAGONS ANNY08:35.301:22.3
249824/U13FFS26904812005THABUIS BASILEMBVILLARD/BOEG08:36.301:23.3
258625/U13FFS26803442005DELERCE GASPARDMBLES GETS S.C08:40.901:27.9
2610726/U13FFS26663422005OUVRIER BUFFET JULESMBCS LA CLUSAZ08:42.001:29.0
2710027/U13FFS26925542005ZAVARISE NOAHMBCNG08:43.101:30.1
289428/U13FFS26862592005DUCREY BRICEMBPRAZ LYS-SOM08:45.201:32.2
299629/U13FFS26813042005PERSONNAZ LOANMBDRAGONS ANNY08:46.101:33.1
309530/U13FFS26862622005LESSERTISSEUX VALENTINMBPRAZ LYS-SOM08:54.901:41.9
318931/U13FFS26886582005COLLOMB EMILIOMBVILLARD/BOEG09:06.301:53.3
329332/U13FFS26871022005SYLVESTRE BARON PAULMBSCNP ROCHOIS09:08.501:55.5
3310233/U13FFS26767382005CHETAIL JULESMBCS MEGEVE09:09.401:56.4
349734/U13FFS26869052005MIR EMARATI MILOMBCS CHAMONIX09:25.902:12.9
3510535/U13FFS26814242005BOUVEROT TINOMBSC CONTAMINE09:27.502:14.5
3610436/U13FFS26865312005BALDUCCI UGOMBDRAGONS ANNY09:29.802:16.8
379237/U13FFS26886782005REPELLIN CHARLESMBVILLARD/BOEG09:32.702:19.7
3810338/U13FFS26878562005VEISY KILLIANMBEN HT GIFFRE09:38.902:25.9
3910939/U13FFS26874902005DAGAND LUBINMBDRAGONS ANNY12:51.805:38.8
Non partants
80FFS26869402005LEVET PROSPERMBSCNP ROCHOIS
81FFS26865382005JOMIER LOISMBDRAGONS ANNY
82FFS26908442005HAEBERLI ARTHURMBCS LA CLUSAZ
99FFS26868012005GARBY KEVINMBSC D'AGY
101FFS26920622005AFLALO CYPRIENMBCHABLAIS NOR
106FFS26869142005LESCOUFF RONANMBCS CHAMONIX

Informations sur le traitement de la course
9 Epreuve non homologuée , Passage en doublon de l'événement n° 130494